Snowfall_Accumulation
0.6 0.4 0.4 0.4 0.5 0.6 0.7 0.8 1.6 1.8 0.8 0.4 0.3 0.3 0.4 0.5 0.1 0.3 0.3 0.2 0.1 0.1 0.1 0.0 0.0 0.1 0.1 0.1 0.1 0.1 0.1 0.0 0.0 0.0 0.0 0.0 0.0 0.0
0.6 0.5 0.4 0.4 0.5 0.7 0.7 0.9 1.0 1.6 1.5 0.4 0.5 0.5 0.3 0.4 0.3 0.4 0.3 0.3 0.2 0.1 0.1 0.1 0.1 0.1 0.1 0.2 0.1 0.1 0.1 0.1 0.1 0.0 0.0 0.0 0.0 0.0
1.1 0.7 0.6 0.5 0.5 0.7 0.9 1.0 1.0 1.4 1.9 0.5 0.3 0.4 0.5 0.4 0.6 0.3 0.2 0.3 0.2 0.2 0.2 0.2 0.3 0.3 0.2 0.2 0.2 0.1 0.1 0.1 0.1 0.1 0.1 0.1 0.0 0.0
1.3 0.8 0.8 0.6 0.6 0.7 1.1 1.2 1.0 1.1 1.8 1.8 0.7 0.6 0.6 0.5 0.4 0.6 0.3 0.2 0.3 0.2 0.2 0.2 0.3 0.3 0.4 0.4 0.4 0.3 0.2 0.2 0.1 0.1 0.2 0.1 0.1 0.1
1.6 1.6 1.0 1.0 1.2 1.1 1.3 1.5 1.4 1.2 1.8 2.4 1.4 1.1 0.9 0.6 0.6 0.7 0.3 0.3 0.2 0.2 0.2 0.1 0.2 0.3 0.4 0.5 0.6 0.5 0.4 0.4 0.3 0.2 0.2 0.2 0.2 0.2
2.4 2.6 2.7 2.5 2.3 2.1 2.0 2.0 2.0 2.1 2.1 2.6 2.7 2.3 1.7 1.1 1.2 1.5 1.2 1.1 0.5 0.3 0.3 0.1 0.2 0.3 0.3 0.3 0.3 0.4 0.4 0.5 0.6 0.5 0.5 0.5 0.4 0.4
2.7 2.9 2.8 2.5 2.3 2.3 2.6 3.2 2.9 3.3 3.6 4.1 3.6 3.1 2.5 1.9 1.7 1.5 2.0 1.4 1.0 0.4 0.5 0.4 0.3 0.3 0.2 0.1 0.2 0.1 0.4 0.8 0.7 0.8 0.6 0.6 0.7 0.7
2.8 2.7 2.5 2.5 2.1 2.3 2.5 3.0 4.0 5.5 5.7 5.7 4.8 3.8 2.7 2.0 2.0 2.3 3.9 4.4 4.4 0.9 1.1 0.8 0.5 0.3 0.2 0.2 0.3 0.4 0.7 1.1 1.2 0.9 0.9 0.8 0.8 0.8
2.6 2.4 2.1 1.8 2.1 1.8 1.9 2.6 3.3 3.8 4.7 5.0 4.7 3.4 3.2 2.9 4.0 5.4 5.2 5.6 4.6 2.4 1.7 1.7 0.9 0.8 0.3 0.4 0.3 0.4 0.6 0.8 1.1 1.0 1.0 0.9 0.8 0.9
2.3 2.1 2.3 1.9 1.8 2.4 3.2 3.9 3.0 2.5 2.4 2.7 2.9 3.1 3.1 3.3 4.2 6.1 5.6 5.2 2.8 1.9 1.7 4.2 1.9 1.4 0.5 0.4 0.4 0.6 0.8 0.9 1.2 1.3 1.3 1.3 1.2 1.3
2.4 1.9 2.3 2.0 2.0 3.8 5.2 4.9 3.3 2.2 1.7 2.3 2.8 2.8 2.6 2.8 3.1 5.7 8.0 8.7 6.6 3.3 2.4 3.9 2.8 2.3 1.2 0.6 0.5 0.8 1.2 1.2 1.4 1.3 1.4 1.3 1.4 1.5
2.2 1.9 2.0 2.2 3.1 5.0 5.6 5.5 4.3 3.2 3.1 2.6 2.1 1.7 1.8 1.9 2.3 5.4 10.6 14.8 11.2 7.5 2.8 4.5 4.8 5.1 5.5 1.6 1.0 1.0 1.0 1.2 1.4 1.3 1.5 1.6 1.7 1.8
3.3 2.6 2.2 3.1 4.1 5.1 4.5 4.4 4.8 4.6 3.8 3.2 2.6 1.9 1.8 2.0 2.3 3.2 5.8 13.1 16.3 11.3 4.6 9.2 10.5 7.3 9.5 5.2 1.9 1.6 2.1 2.7 2.8 2.5 2.0 1.7 1.8 2.3
4.8 3.8 4.0 4.8 4.8 4.0 3.6 3.6 4.3 4.0 3.7 4.0 3.9 3.7 3.2 3.0 3.0 3.3 3.9 5.7 8.9 10.4 7.2 11.5 17.3 13.6 15.0 12.7 7.9 5.9 3.8 4.7 6.2 6.8 4.1 2.8 2.0 1.6
4.8 4.5 4.9 4.4 3.8 3.4 2.9 3.2 3.4 4.1 5.0 5.9 5.2 4.5 3.6 3.7 3.6 3.9 4.1 4.3 5.3 5.8 6.5 8.6 13.0 14.3 16.9 16.9 12.6 9.1 9.3 8.0 8.5 9.3 6.8 4.7 3.8 2.7
5.0 4.8 3.8 3.4 3.4 3.4 3.3 3.1 3.1 3.9 5.6 7.2 6.3 4.7 4.5 4.6 5.1 5.1 6.5 7.0 8.2 7.4 6.5 7.3 9.3 13.2 15.8 13.3 13.7 12.4 11.9 14.8 11.7 8.6 5.7 4.6 3.5 3.3
6.1 5.0 4.1 3.7 3.8 3.5 3.6 3.3 3.3 3.8 4.7 5.6 6.5 6.7 6.2 5.9 5.9 6.3 8.6 9.9 11.1 9.4 8.2 6.8 6.9 8.2 10.5 11.4 12.9 11.7 12.5 14.1 11.2 7.7 6.7 6.9 4.2 3.1
6.7 6.6 5.3 4.6 4.5 4.3 4.4 4.5 4.2 4.5 5.7 7.0 7.6 8.1 8.6 8.4 8.2 7.7 9.7 12.0 11.9 10.1 9.2 8.0 8.3 9.1 8.9 8.4 9.7 12.3 13.0 13.8 10.1 8.3 7.8 9.7 8.6 4.5
7.4 6.8 5.7 5.1 4.8 4.8 4.8 5.2 5.4 5.1 6.1 8.3 9.6 9.6 10.2 9.6 9.8 10.1 10.9 11.7 11.2 9.7 8.3 7.9 9.9 14.3 16.6 11.7 7.9 9.5 14.0 13.8 11.4 9.5 8.0 10.1 11.7 7.9
7.4 7.0 6.4 5.7 5.5 5.8 6.2 6.4 6.3 5.9 6.8 8.3 9.4 10.1 11.1 11.9 11.7 11.6 11.6 12.0 11.7 9.7 7.8 6.1 7.9 13.2 19.8 18.0 14.0 11.4 9.3 12.7 14.5 14.7 10.3 7.7 7.3 4.6
7.2 7.2 7.3 7.1 7.3 7.6 8.0 7.8 8.3 8.7 9.2 10.4 10.6 11.1 12.1 13.8 13.4 11.9 11.4 10.8 10.8 10.4 9.1 6.9 6.0 7.7 12.0 15.2 14.5 11.5 11.0 8.7 9.8 15.8 16.7 15.5 13.1 10.6
7.2 7.5 7.7 7.8 8.6 9.2 9.3 9.7 9.9 9.5 10.3 11.0 11.2 11.7 12.5 14.1 14.2 12.6 11.5 11.4 10.4 9.9 9.2 7.3 6.1 7.3 10.5 14.7 12.9 9.5 9.7 9.4 8.1 7.1 9.2 13.6 21.9 23.9
7.7 7.8 7.8 8.2 8.9 9.7 10.3 10.6 11.3 11.4 11.2 12.4 12.4 12.3 12.6 12.9 11.6 11.6 11.6 11.2 11.6 11.0 10.1 9.8 8.6 8.6 9.6 10.4 11.2 10.3 9.0 8.8 8.6 9.0 10.5 8.0 7.6 8.5